[[{"header":{"parameterUnit":"m.s-1","parameterCategory":1,"la1":30.2991,"la2":30.254,"lo1":-89.0895,"lo2":-89.0444,"dy":0.0017,"dx":0.0017,"nx":28,"ny":28,"refTime":"2024-06-04T21:00:00:Z","depth":0,"parameterNumber":2,"parameterNumberName":"U-component_of_WINDS"},"data":[0,0,0,0,0,0,0,0,0,0,0,0,0,0,0,0,0,0,0,0,0,0,0,0,0,0,0,0,0,0,0,0,0,0,0,0,0,0,0,0,0,0,0,0,0,0,0,0,0,0,0,0,0,0,0,0,0,0,-1.1213,-1.1212,0,-1.1142,-1.1141,-1.1141,-1.1115,-1.1115,-1.1116,-1.1116,-1.1043,-1.1041,-1.1038,0,0,0,0,0,0,0,0,0,0,0,0,0,-1.1326,-1.1324,-1.1213,-1.1212,-1.1211,-1.1142,-1.1141,-1.114,-1.1115,-1.1115,-1.1116,-1.1116,-1.1043,-1.1041,-1.1038,0,0,0,0,0,0,0,0,0,0,0,0,0,-1.1268,-1.1324,-1.1213,-1.119,-1.1187,-1.1142,-1.1141,-1.114,-1.1115,-1.1115,-1.1116,-1.1116,-1.1044,-1.1041,-1.1038,-1.101,0,0,-1.1028,-1.1026,0,0,0,0,0,0,0,0,-1.1272,-1.1264,-1.1194,-1.1192,-1.1188,-1.1138,-1.1154,-1.1096,-1.1115,-1.1142,-1.1116,-1.1116,-1.1074,-1.1068,-1.1054,-1.1007,-1.1004,-1.1028,-1.1026,-1.1024,-1.1023,0,0,0,0,0,0,0,-1.1276,-1.1267,-1.1185,-1.1193,-1.119,-1.1184,-1.1176,-1.1143,-1.1107,-1.114,-1.1138,-1.113,-1.1072,-1.1057,-1.1052,-1.1003,-1.1028,-1.1025,-1.1023,-1.1021,-1.0931,-1.093,0,0,0,0,0,0,-1.1284,-1.1271,-1.1187,-1.1183,-1.1232,-1.1181,-1.1173,-1.1154,-1.1107,-1.11,-1.113,-1.1129,-1.1063,-1.1056,-1.105,-1.1015,-1.1024,-1.1021,-1.1019,-1.0931,-1.093,-1.093,0,0,0,0,0,0,-1.1286,-1.1276,-1.119,-1.1226,-1.1215,-1.1179,-1.1158,-1.1152,-1.1137,-1.1099,-1.1093,-1.1121,-1.1063,-1.1054,-1.1021,-1.1012,-1.102,-1.1017,-1.0932,-1.0931,-1.093,-1.0945,0,0,0,0,0,0,-1.1289,-1.1277,-1.1266,-1.1226,-1.1213,-1.1162,-1.1157,-1.115,-1.1132,-1.113,-1.109,-1.1083,-1.1062,-1.1026,-1.1017,-1.1008,-1.1014,-1.0932,-1.0931,-1.093,-1.0945,-1.0945,-1.0944,0,0,0,0,0,-1.1294,-1.1273,-1.1266,-1.1256,-1.1198,-1.1161,-1.1154,-1.113,-1.1131,-1.112,-1.1096,-1.1084,-1.1015,-1.1022,-1.1013,-1.1002,-1.0933,-1.0931,-1.093,-1.0945,-1.0945,-1.0945,0,0,0,0,0,0,-1.1312,-1.1267,-1.1259,-1.1224,-1.1197,-1.1157,-1.1142,-1.1131,-1.1102,-1.1102,-1.1074,-1.1066,-1.1034,-1.1015,-1.1024,-1.0974,-1.0973,-1.097,-1.0987,-1.0987,-1.0986,-1.0991,-1.1011,0,0,0,0,0,-1.1312,-1.1286,-1.1248,-1.1221,-1.1208,-1.1178,-1.1161,-1.1145,-1.1116,-1.1104,-1.1078,-1.1049,-1.1021,-1.1003,-1.0975,-1.0943,-1.0934,-1.093,-1.093,-1.093,-1.0928,-1.091,-1.0909,-1.0927,-1.0927,-1.0927,0,0,-1.1312,-1.1284,-1.1269,-1.1224,-1.1201,-1.1175,-1.1168,-1.114,-1.1121,-1.11,-1.1066,-1.1047,-1.1013,-1.0981,-1.0965,-1.0963,-1.0921,-1.0929,-1.0929,-1.0927,-1.0909,-1.0907,-1.0906,-1.0926,-1.0926,-1.0926,0,0,-1.1298,-1.1274,-1.125,-1.1227,-1.1193,-1.1173,-1.1168,-1.113,-1.1116,-1.1082,-1.1066,-1.1043,-1.0995,-1.0972,-1.0954,-1.0934,-1.0923,-1.0926,-1.0924,-1.0908,-1.0906,-1.0905,-1.0898,-1.0896,-1.0924,-1.0924,-1.0924,0,-1.1302,-1.1262,-1.1238,-1.1212,-1.1193,-1.1174,-1.1149,-1.1129,-1.1087,-1.1074,-1.1074,-1.1014,-1.099,-1.0952,-1.0948,-1.0934,-1.0927,-1.093,-1.0909,-1.0907,-1.0905,-1.0898,-1.0896,-1.0924,-1.0924,-1.0924,-1.0924,0,-1.1268,-1.1241,-1.1225,-1.1186,-1.1166,-1.114,-1.1114,-1.1096,-1.1083,-1.1064,-1.1031,-1.1002,-1.0968,-1.0958,-1.0945,-1.0919,-1.0919,-1.0914,-1.0912,-1.0905,-1.0898,-1.0895,-1.0925,-1.0925,-1.0925,-1.0925,0,0,-1.1262,-1.1212,-1.1207,-1.1189,-1.1151,-1.1129,-1.1104,-1.1071,-1.1057,-1.1029,-1.1007,-1.0968,-1.0964,-1.0944,-1.0928,-1.0913,-1.09,-1.091,-1.0909,-1.0909,-1.0871,-1.0874,-1.0872,-1.0893,-1.0893,-1.0892,-1.0873,0,-1.1243,-1.1196,-1.1175,-1.1138,-1.1113,-1.1096,-1.1073,-1.1048,-1.103,-1.1006,-1.0986,-1.0959,-1.0954,-1.0942,-1.0927,-1.0905,-1.0892,-1.0906,-1.0872,-1.0872,-1.0881,-1.0868,-1.0871,-1.0855,-1.0871,-1.087,-1.087,0,-1.1214,-1.1187,-1.1147,-1.1114,-1.1102,-1.1083,-1.1052,-1.103,-1.1001,-1.0989,-1.0968,-1.0953,-1.0926,-1.0928,-1.0891,-1.0901,-1.0886,-1.0873,-1.0872,-1.0868,-1.087,-1.0863,-1.0849,-1.0847,-1.0865,-1.0866,-1.0866,0,-1.1213,-1.1168,-1.1138,-1.1124,-1.1083,-1.107,-1.1053,-1.1025,-1.1007,-1.0981,-1.0969,-1.094,-1.0924,-1.0902,-1.088,-1.0883,-1.0845,-1.0845,-1.0835,-1.0835,-1.0826,-1.0827,-1.081,-1.0818,-1.0818,-1.0818,-1.0818,0,-1.1194,-1.117,-1.1138,-1.1119,-1.1093,-1.107,-1.1045,-1.1026,-1.1001,-1.098,-1.0963,-1.0944,-1.0916,-1.0893,-1.0876,-1.0849,-1.0842,-1.0831,-1.0827,-1.0832,-1.0834,-1.0821,-1.0822,-1.0817,-1.0818,-1.0818,-1.0818,0,-1.1188,-1.1165,-1.1132,-1.1098,-1.1088,-1.107,-1.1041,-1.1023,-1.1005,-1.0978,-1.097,-1.0941,-1.0914,-1.089,-1.0853,-1.0842,-1.0814,-1.0809,-1.0823,-1.0821,-1.0812,-1.0813,-1.0786,-1.0781,-1.0793,-1.0793,-1.0793,0,-1.1177,-1.1159,-1.1122,-1.1107,-1.109,-1.1065,-1.1048,-1.1025,-1.1007,-1.0974,-1.0961,-1.0932,-1.0908,-1.0864,-1.084,-1.0812,-1.0806,-1.0799,-1.0802,-1.0809,-1.0806,-1.0807,-1.0806,-1.0798,-1.0798,-1.0798,-1.0798,0,-1.1159,-1.115,-1.1125,-1.1096,-1.1076,-1.1052,-1.1028,-1.1017,-1.099,-1.0971,-1.0943,-1.0924,-1.0888,-1.0859,-1.0829,-1.0812,-1.0801,-1.0798,-1.0794,-1.0799,-1.0808,-1.0803,-1.0822,-1.0798,-1.0798,-1.0798,-1.0798,-1.0798,-1.115,-1.1134,-1.1106,-1.1079,-1.1059,-1.1038,-1.102,-1.1,-1.0976,-1.0944,-1.0933,-1.0904,-1.0877,-1.0836,-1.0819,-1.0796,-1.0795,-1.0789,-1.0788,-1.0787,-1.0787,-1.0813,-1.0791,-1.0791,-1.0791,-1.0791,-1.0791,0,-1.1132,-1.1114,-1.109,-1.1057,-1.1037,-1.1029,-1.1003,-1.0986,-1.0961,-1.0937,-1.0914,-1.0882,-1.0855,-1.083,-1.0802,-1.0789,-1.0783,-1.0782,-1.0783,-1.0779,-1.079,-1.0796,-1.0788,-1.0788,-1.0788,-1.0788,-1.0788,-1.0788,-1.112,-1.1091,-1.1079,-1.1041,-1.1023,-1.0994,-1.098,-1.0961,-1.0942,-1.0907,-1.0885,-1.0869,-1.0845,-1.0815,-1.0791,-1.0784,-1.0774,-1.0775,-1.0767,-1.0778,-1.0778,-1.0779,-1.0784,-1.0773,-1.0773,-1.0758,-1.0757,-1.0757]},{"header":{"parameterUnit":"m.s-1","parameterCategory":1,"la1":30.2991,"la2":30.254,"lo1":-89.0895,"lo2":-89.0444,"dy":0.0017,"dx":0.0017,"nx":28,"ny":28,"refTime":"2024-06-04T21:00:00:Z","depth":0,"parameterNumber":3,"parameterNumberName":"V-component_of_WINDS"},"data":[0,0,0,0,0,0,0,0,0,0,0,0,0,0,0,0,0,0,0,0,0,0,0,0,0,0,0,0,0,0,0,0,0,0,0,0,0,0,0,0,0,0,0,0,0,0,0,0,0,0,0,0,0,0,0,0,0,0,6.2346,6.2346,0,6.2279,6.2279,6.2278,6.2215,6.2215,6.2214,6.2213,6.214,6.2139,6.2138,0,0,0,0,0,0,0,0,0,0,0,0,0,6.2417,6.2416,6.2346,6.2345,6.2345,6.228,6.2279,6.2278,6.2215,6.2214,6.2214,6.2213,6.2141,6.2139,6.2138,0,0,0,0,0,0,0,0,0,0,0,0,0,6.2372,6.2416,6.2346,6.2306,6.2302,6.228,6.2279,6.2277,6.2216,6.2214,6.2213,6.2212,6.2141,6.2139,6.2138,6.2149,0,0,6.2132,6.2131,0,0,0,0,0,0,0,0,6.2375,6.237,6.2313,6.2309,6.2304,6.2255,6.2277,6.2234,6.2216,6.2248,6.2213,6.2212,6.2179,6.2174,6.2164,6.2146,6.2143,6.2132,6.2131,6.213,6.2129,0,0,0,0,0,0,0,6.2378,6.2372,6.232,6.2312,6.2306,6.229,6.2282,6.2269,6.2221,6.2245,6.2241,6.2234,6.2176,6.2166,6.2162,6.2142,6.2132,6.213,6.2129,6.2128,6.2132,6.2133,0,0,0,0,0,0,6.2388,6.2375,6.2322,6.2318,6.2337,6.229,6.2281,6.2271,6.2221,6.2212,6.2235,6.2231,6.2169,6.2164,6.2159,6.217,6.213,6.2128,6.2127,6.2131,6.2132,6.2134,0,0,0,0,0,0,6.239,6.2384,6.2324,6.2345,6.2336,6.229,6.2279,6.2271,6.226,6.2213,6.2204,6.2233,6.2168,6.2161,6.2153,6.2167,6.2127,6.2126,6.2129,6.2131,6.2133,6.2193,0,0,0,0,0,0,6.2392,6.2385,6.2389,6.2346,6.2336,6.2321,6.228,6.227,6.2258,6.2252,6.2209,6.22,6.2167,6.2156,6.2151,6.2164,6.2124,6.2128,6.213,6.2132,6.219,6.2197,6.2203,0,0,0,0,0,6.2395,6.2407,6.239,6.2383,6.234,6.2321,6.2315,6.2278,6.2259,6.2263,6.2233,6.2202,6.2167,6.2156,6.215,6.2162,6.2127,6.213,6.2132,6.2187,6.2195,6.2203,0,0,0,0,0,0,6.2451,6.2401,6.238,6.238,6.2356,6.2311,6.2314,6.2288,6.2267,6.2263,6.2216,6.2207,6.2204,6.2182,6.2171,6.2172,6.2142,6.2144,6.2186,6.2194,6.22,6.2205,6.2123,0,0,0,0,0,6.2464,6.2454,6.241,6.2413,6.2403,6.2361,6.2351,6.2325,6.2297,6.2286,6.2255,6.2229,6.2212,6.2202,6.2183,6.2187,6.2177,6.2192,6.2199,6.2204,6.2206,6.2208,6.2215,6.2142,6.2142,6.2142,0,0,6.2489,6.246,6.2456,6.2424,6.2402,6.2393,6.2353,6.2343,6.2336,6.2284,6.2275,6.2252,6.2219,6.2218,6.2215,6.2199,6.2224,6.2208,6.2213,6.2211,6.2211,6.2218,6.2224,6.2144,6.2144,6.2144,0,0,6.253,6.2508,6.2509,6.2489,6.2457,6.243,6.2431,6.2391,6.2374,6.2365,6.2327,6.2316,6.2288,6.2267,6.2252,6.2289,6.226,6.2285,6.2319,6.2321,6.2327,6.2331,6.2345,6.2351,6.2287,6.2287,6.2287,0,6.2565,6.255,6.2512,6.2507,6.2494,6.245,6.2451,6.2432,6.2396,6.2388,6.2371,6.2336,6.2311,6.2304,6.2314,6.2303,6.2303,6.2289,6.2329,6.2333,6.2337,6.235,6.2355,6.229,6.229,6.2289,6.2289,0,6.2595,6.2586,6.259,6.2559,6.2547,6.2544,6.2506,6.2498,6.2473,6.2448,6.2439,6.2408,6.2384,6.238,6.2355,6.2371,6.2362,6.2338,6.2308,6.2348,6.2359,6.2364,6.2295,6.2293,6.2292,6.2292,0,0,6.2668,6.2618,6.2621,6.2607,6.257,6.2561,6.2558,6.2536,6.253,6.2507,6.2503,6.2481,6.246,6.2443,6.2416,6.2418,6.2451,6.2393,6.2392,6.2406,6.2467,6.2486,6.2492,6.2432,6.2432,6.2433,6.247,0,6.2704,6.2695,6.2662,6.2663,6.2655,6.2614,6.261,6.2588,6.2564,6.2553,6.2526,6.2513,6.2485,6.2475,6.2475,6.2447,6.2462,6.2443,6.2427,6.2427,6.2436,6.2498,6.2517,6.2553,6.2474,6.2475,6.2475,0,6.2743,6.2726,6.2727,6.2693,6.2688,6.2685,6.2664,6.2653,6.2627,6.261,6.2594,6.2564,6.2558,6.253,6.2521,6.2509,6.2501,6.2486,6.2486,6.2483,6.2453,6.2496,6.2564,6.257,6.2482,6.2481,6.2481,0,6.2797,6.2774,6.2772,6.2761,6.2721,6.2721,6.2704,6.2676,6.2666,6.2647,6.264,6.262,6.2609,6.2594,6.256,6.2543,6.2555,6.2524,6.254,6.2541,6.2544,6.2544,6.2611,6.2539,6.2538,6.2538,6.2538,0,6.284,6.2843,6.2796,6.2795,6.2796,6.2759,6.2761,6.274,6.2717,6.2711,6.2674,6.2669,6.2624,6.2613,6.2586,6.2584,6.2579,6.2565,6.2557,6.2568,6.257,6.2561,6.2558,6.254,6.2539,6.2539,6.2539,0,6.29,6.2869,6.2865,6.2828,6.2819,6.2822,6.2791,6.2788,6.2764,6.2757,6.2753,6.2714,6.27,6.2665,6.2641,6.2623,6.2628,6.2615,6.2638,6.2633,6.2652,6.2651,6.2716,6.2723,6.2646,6.2646,6.2647,0,6.293,6.2931,6.2896,6.289,6.2876,6.2866,6.2856,6.282,6.2811,6.2783,6.2784,6.2768,6.2753,6.2733,6.2702,6.2685,6.267,6.2695,6.2667,6.2679,6.2672,6.2672,6.2673,6.27,6.2701,6.2702,6.2703,0,6.2986,6.2971,6.2959,6.2943,6.2933,6.2917,6.2899,6.2897,6.2856,6.2848,6.2835,6.2823,6.2801,6.2786,6.2764,6.2745,6.2718,6.2712,6.2715,6.2726,6.2739,6.2733,6.2654,6.271,6.271,6.2709,6.2709,6.2708,6.3031,6.3032,6.3008,6.2996,6.298,6.2965,6.2962,6.2938,6.2927,6.2907,6.2886,6.2876,6.2851,6.2819,6.2803,6.2794,6.2779,6.2783,6.2784,6.2786,6.2791,6.2742,6.279,6.2789,6.2789,6.2789,6.2789,0,6.3086,6.3069,6.3059,6.3037,6.3029,6.3006,6.2986,6.298,6.2971,6.2951,6.2939,6.2924,6.291,6.288,6.2863,6.2861,6.2848,6.2858,6.2858,6.2854,6.2805,6.2804,6.2869,6.2869,6.2869,6.2869,6.2869,6.2869,6.3113,6.3113,6.3096,6.3087,6.307,6.3061,6.3052,6.3038,6.3022,6.3009,6.2998,6.2979,6.2955,6.2936,6.2922,6.2914,6.2909,6.2923,6.2911,6.2865,6.2857,6.285,6.285,6.2923,6.2923,6.2961,6.2961,6.2962]}]]